Location: �clusier
(49.9361°N, 2.7869°E)
Time: 13:11:26
(UTC+00:00)

NOAA 13 - Pass Details

Date: 04 February 2022
Orbit: 842 x 857 km, 98.5° (Epoch: 17 May)

Event Time Altitude Azimuth Distance (km) Brightness Sun altitude
Rises 06:04:57 0° 7° (N) 3,430 7.8 -12.0°
Reaches altitude 10° 06:07:38 10° 356° (N) 2,492 7.0 -11.6°
Maximum altitude 06:12:13 28° 300° (WNW) 1,566 5.6 -10.8°
Drops below altitude 10° 06:16:48 10° 244° (WSW) 2,487 6.7 -10.1°
Sets 06:19:28 0° 233° (SW) 3,421 7.5 -9.7°
